星链-34033 (STARLINK-34033)

导读

STARLINK-34033是美国太空探索技术公司(SpaceX)于2025年5月16日发射的星链卫星,隶属于星链(Starlink)低轨互联网星座项目。星链计划旨在为全球提供高速低延迟卫星互联网服务,该卫星入轨后,将进一步扩充星链星座规模,提升星座的全球覆盖能力与服务稳定性。

Basic Information
目录编号:
64045
目录名称:
STARLINK-34033
国际标识:
2025-102Z
轨道中心:
EARTH
卫星名称:
星链-34033
卫星全名:
星链-34033 (STARLINK-34033)
卫星状态:
在轨 (已飞行394 天)
发射日期:
2025-05-16 UTC
国别 :
美国 (US)
星等 :
--
Orbit Information
数据来源 国际轨道数据 AOE轨道数据
星历时间 2026-06-13T23:06:09+0800
12小时前
查看轨道信息
2026-06-10T04:00:00+0800
4天前
查看轨道信息
半长轴 6950.284km 6950.222km
偏心率 0.0003495 0.0003025
轨道倾角 70.000° 69.997°
近地点辐角 259.841° 271.442°
升交点赤经 232.524° 242.096°
平近点角 100.236° 139.272°
近地点 569.717km 569.982km
远地点 574.577km 574.188km
周期 96.109分钟 96.108分钟
每日圈数 14.983008 14.983208
Detailed Information
固有亮度:
5
最大亮度:
2.5
卫星平台:
Starlink V1.0
覆盖范围:
全球
运营商:
太空探索技术公司
运营商所在国:
美国
制造商(研发单位):
太空探索技术公司
制造商所在国:
美国
使用方式:
暂无
Satellite Introduction
Starlink 计划是 SpaceX 推出的全球卫星互联网项目,通过发射低轨道卫星,为全球尤其是偏远地区提供高速、低延迟的互联网服务。自 2019 年起,Starlink 已部署数千颗卫星,旨在缩小全球数字鸿沟,推动互联网普及。该项目还为军事、航空等行业提供通信支持,带来广泛经济效益。
2D Orbit Map
3D Orbit Map
Orbit Altitude Analysis Chart
Orbit Inclination Analysis Chart
Orbit Comprehensive Analysis Chart
View Comprehensive Chart